FW0782 Weather Reports


Display with metric or nautical units.
time (UTC)temp
F
wind
direction
speed
MPH
gust
MPH
rain 1hr
in
rain 24hr
in
rain mn
in
humidity
%
barometer
mb
20260507080218 53 101 5.0 12.0 0.00 0.00 0.00 75 1016.2
20260507080019 53 100 6.0 11.0 0.00 0.00 0.00 75 1015.9
20260507075718 54 88 6.0 9.0 0.00 0.00 0.00 76 1016.2
20260507075218 53 82 5.0 8.0 0.00 0.00 0.00 77 1016.2
20260507075019 53 85 5.0 8.0 0.00 0.00 0.00 77 1015.9
20260507074718 53 98 6.0 9.0 0.00 0.00 0.00 76 1016.1
20260507074219 53 74 4.0 9.0 0.00 0.00 0.00 77 1016.1
20260507074019 53 68 4.0 7.0 0.00 0.00 0.00 76 1015.8
20260507073718 53 69 4.0 9.0 0.00 0.00 0.00 77 1016.1
20260507073219 53 63 6.0 9.0 0.00 0.00 0.00 78 1016.1
20260507073019 53 69 5.0 8.0 0.00 0.00 0.00 77 1015.9
20260506210218 51 55 0.0 0.0 0.00 0.00 0.00 74 1012.7
20260506210018 51 0 0.0 0.0 0.00 0.00 0.00 74 1012.3
20260506205219 51 55 0.0 0.0 0.00 0.00 0.00 74 1012.6
20260506205018 51 0 0.0 0.0 0.00 0.00 0.00 74 1012.3
20260506204719 51 55 0.0 0.0 0.00 0.00 0.00 74 1012.6
20260506204018 51 0 0.0 0.0 0.00 0.00 0.00 74 1012.2
20260506203718 51 55 0.0 0.0 0.00 0.00 0.00 74 1012.5
20260506200219 52 55 0.0 0.0 0.00 0.00 0.00 71 1012.4
20260506200019 52 0 0.0 0.0 0.00 0.00 0.00 71 1012.0
20260506195718 52 55 0.0 0.0 0.00 0.00 0.00 70 1012.3
20260506195219 52 55 0.0 0.0 0.00 0.00 0.00 70 1012.3
20260506195019 52 0 0.0 0.0 0.00 0.00 0.00 70 1012.0
20260506194718 52 55 0.0 0.0 0.00 0.00 0.00 70 1012.2
20260506194219 52 55 0.0 0.0 0.00 0.00 0.00 69 1012.1
20260506194020 52 0 0.0 0.0 0.00 0.00 0.00 69 1011.8
20260506193718 52 55 0.0 0.0 0.00 0.00 0.00 69 1012.1
20260506191021 53 0 0.0 0.0 0.00 0.00 0.00 67 1011.6
20260506190721 54 55 0.0 0.0 0.00 0.00 0.00 66 1011.9
20260506190021 54 56 2.0 4.0 0.00 0.00 0.00 66 1011.4
20260506185721 54 55 2.0 5.0 0.00 0.00 0.00 66 1011.7
20260506185022 54 56 3.0 5.0 0.00 0.00 0.00 65 1011.3
20260506184721 55 55 3.0 5.0 0.00 0.00 0.00 65 1011.6
20260506184221 55 55 2.0 6.0 0.00 0.00 0.00 65 1011.5
20260506184022 55 55 2.0 6.0 0.00 0.00 0.00 65 1011.2
20260506183721 55 55 3.0 6.0 0.00 0.00 0.00 66 1011.5
20260506183221 55 55 5.0 9.0 0.00 0.00 0.00 67 1011.5
20260506183021 55 56 6.0 9.0 0.00 0.00 0.00 68 1011.2
20260506181724 56 15 4.0 7.0 0.00 0.00 0.00 72 1011.2
20260506181220 56 53 5.0 8.0 0.00 0.00 0.00 71 1011.1
20260506180721 56 54 5.0 10.0 0.00 0.00 0.00 71 1011.0
20260506180221 56 53 6.0 8.0 0.00 0.00 0.00 70 1010.9
20260506180021 56 32 5.0 8.0 0.00 0.00 0.00 70 1010.5
20260506175721 56 349 6.0 12.0 0.00 0.00 0.00 69 1010.8
20260506175221 56 44 5.0 9.0 0.00 0.00 0.00 69 1010.8
20260506175021 57 16 5.0 9.0 0.00 0.00 0.00 70 1010.5
20260506174721 57 10 6.0 13.0 0.00 0.00 0.00 70 1010.8
20260506174021 56 26 4.0 8.0 0.00 0.00 0.00 69 1010.4
20260506173721 57 55 6.0 10.0 0.00 0.00 0.00 69 1010.7
20260506173221 57 20 5.0 9.0 0.00 0.00 0.00 68 1010.6
20260506173021 57 54 5.0 9.0 0.00 0.00 0.00 69 1010.3
20260506172221 57 2 5.0 12.0 0.00 0.00 0.00 70 1010.6
20260506172021 57 5 5.0 10.0 0.00 0.00 0.00 70 1010.3
20260506171720 57 21 3.0 14.0 0.00 0.00 0.00 70 1010.5
20260506171221 56 1 6.0 13.0 0.00 0.00 0.00 70 1010.5
20260506171021 56 1 6.0 13.0 0.00 0.00 0.00 70 1010.2
20260506170721 56 11 6.0 12.0 0.00 0.00 0.00 70 1010.4
20260506165720 57 8 5.0 12.0 0.00 0.00 0.00 69 1010.5
20260506165021 57 354 7.0 12.0 0.00 0.00 0.00 69 1010.1
20260506164720 57 37 3.0 7.0 0.00 0.00 0.00 68 1010.3
20260506164221 57 347 5.0 10.0 0.00 0.00 0.00 68 1010.3
20260506164020 57 39 4.0 8.0 0.00 0.00 0.00 68 1010.0
20260506163721 57 28 7.0 18.0 0.00 0.00 0.00 69 1010.3
20260506163021 58 14 5.0 15.0 0.00 0.00 0.00 69 1009.9
20260506162220 58 1 6.0 15.0 0.00 0.00 0.00 70 1010.2
20260506161721 58 351 10.0 21.0 0.00 0.00 0.00 70 1010.2
20260506161221 57 355 7.0 15.0 0.00 0.00 0.00 70 1010.3
20260506161020 57 351 9.0 15.0 0.00 0.00 0.00 70 1009.9
20260506160721 57 356 7.0 13.0 0.00 0.00 0.00 71 1010.3
20260506160221 57 351 7.0 15.0 0.00 0.00 0.00 69 1010.3
20260506160022 58 351 8.0 15.0 0.00 0.00 0.00 69 1009.9
20260506155720 58 5 6.0 12.0 0.00 0.00 0.00 70 1010.3
20260506155221 58 355 6.0 12.0 0.00 0.00 0.00 71 1010.3
20260506155021 58 346 7.0 12.0 0.00 0.00 0.00 72 1009.9
20260506154720 59 12 7.0 15.0 0.00 0.00 0.00 71 1010.3
20260506154221 58 7 7.0 14.0 0.00 0.00 0.00 70 1010.3
20260506154022 58 11 5.0 8.0 0.00 0.00 0.00 70 1010.0
20260506153721 59 2 7.0 15.0 0.00 0.00 0.00 70 1010.3
20260506153221 59 3 6.0 12.0 0.00 0.00 0.00 70 1010.3
20260506153021 59 357 6.0 10.0 0.00 0.00 0.00 70 1009.9
20260506152721 59 351 9.0 20.0 0.00 0.00 0.00 70 1010.3
20260506152221 59 349 7.0 16.0 0.00 0.00 0.00 72 1010.3
20260506152021 59 347 9.0 16.0 0.00 0.00 0.00 71 1010.0
20260506151720 59 343 7.0 14.0 0.00 0.00 0.00 72 1010.2
20260506151221 59 352 8.0 14.0 0.00 0.00 0.00 71 1010.3
20260506151021 59 342 9.0 15.0 0.00 0.00 0.00 71 1010.0
20260506150720 59 342 8.0 14.0 0.00 0.00 0.00 72 1010.2
20260506150220 59 341 6.0 15.0 0.00 0.00 0.00 70 1010.2
20260506150020 59 341 7.0 12.0 0.00 0.00 0.00 70 1009.9
20260506145720 59 339 6.0 13.0 0.00 0.00 0.00 71 1010.2
20260506145221 59 358 7.0 14.0 0.00 0.00 0.00 68 1010.3
20260506144721 59 54 5.0 12.0 0.00 0.00 0.00 69 1010.2
20260506144220 59 9 6.0 14.0 0.00 0.00 0.00 68 1010.2
20260506144021 59 354 9.0 14.0 0.00 0.00 0.00 69 1010.0
20260506143720 59 30 6.0 15.0 0.00 0.00 0.00 68 1010.2
20260506143220 59 27 8.0 14.0 0.00 0.00 0.00 71 1010.2
20260506142721 59 355 5.0 12.0 0.00 0.00 0.00 69 1010.1
20260506142220 60 344 8.0 15.0 0.00 0.00 0.00 72 1010.1
20260506141720 59 27 6.0 14.0 0.00 0.00 0.00 70 1010.1
20260506141220 59 2 7.0 15.0 0.00 0.00 0.00 70 1010.2
20260506141021 59 7 8.0 13.0 0.00 0.00 0.00 69 1009.8
20260506140220 59 357 8.0 16.0 0.00 0.00 0.00 71 1010.3
20260506135221 59 337 7.0 13.0 0.00 0.00 0.00 71 1010.2
20260506135021 59 15 7.0 12.0 0.00 0.00 0.00 70 1009.9
20260506134720 59 354 7.0 14.0 0.00 0.00 0.00 73 1010.2
20260506134220 59 353 6.0 14.0 0.00 0.00 0.00 72 1010.2
20260506134020 59 1 6.0 12.0 0.00 0.00 0.00 70 1009.9
20260506133720 59 345 8.0 12.0 0.00 0.00 0.00 72 1010.3
20260506133220 58 357 6.0 12.0 0.00 0.00 0.00 71 1010.3
20260506133020 59 356 4.0 7.0 0.00 0.00 0.00 73 1010.0
20260506132720 59 352 6.0 12.0 0.00 0.00 0.00 73 1010.3
20260506132221 59 338 9.0 14.0 0.00 0.00 0.00 70 1010.3
20260506132020 59 346 9.0 14.0 0.00 0.00 0.00 73 1009.9
20260506131721 59 8 6.0 10.0 0.00 0.00 0.00 72 1010.3
20260506131221 59 45 5.0 13.0 0.00 0.00 0.00 71 1010.2
20260506131020 59 341 6.0 13.0 0.00 0.00 0.00 72 1009.9
20260506130721 59 354 8.0 14.0 0.00 0.00 0.00 74 1010.2
20260506130220 58 327 9.0 18.0 0.00 0.00 0.00 73 1010.1
20260506130020 58 1 9.0 18.0 0.00 0.00 0.00 73 1009.9
20260506125720 58 353 9.0 16.0 0.00 0.00 0.00 74 1010.2
20260506125220 58 355 6.0 13.0 0.00 0.00 0.00 73 1010.1
20260506125020 58 7 6.0 15.0 0.00 0.00 0.00 74 1009.8
20260506124720 58 358 7.0 15.0 0.00 0.00 0.00 72 1010.0
20260506124220 58 326 7.0 15.0 0.00 0.00 0.00 76 1010.0
20260506124020 58 1 6.0 9.0 0.00 0.00 0.00 74 1009.8
20260506123720 58 3 7.0 13.0 0.00 0.00 0.00 74 1010.0
20260506123220 58 357 7.0 15.0 0.00 0.00 0.00 74 1010.1
20260506123020 58 349 8.0 15.0 0.00 0.00 0.00 74 1009.8
20260506122720 58 6 6.0 13.0 0.00 0.00 0.00 75 1010.1
20260506122220 58 9 9.0 15.0 0.00 0.00 0.00 75 1010.1
20260506122020 58 345 8.0 15.0 0.00 0.00 0.00 75 1009.8
20260506121720 58 342 8.0 14.0 0.00 0.00 0.00 76 1010.1
20260506121220 58 348 6.0 12.0 0.00 0.00 0.00 76 1010.1
20260506121021 57 348 8.0 12.0 0.00 0.00 0.00 75 1009.7
20260506120220 57 15 5.0 13.0 0.00 0.00 0.00 75 1010.0
20260506120021 57 356 7.0 12.0 0.00 0.00 0.00 76 1009.7
20260506115720 57 357 9.0 14.0 0.00 0.00 0.00 76 1010.0
20260506115220 57 336 9.0 15.0 0.00 0.00 0.00 75 1010.0
20260506115021 57 344 8.0 15.0 0.00 0.00 0.00 75 1009.7
20260506114720 57 4 8.0 12.0 0.00 0.00 0.00 75 1009.9
20260506114219 58 355 9.0 15.0 0.00 0.00 0.00 75 1009.9
20260506113720 58 351 6.0 14.0 0.00 0.00 0.00 73 1009.9
20260506112720 58 334 9.0 16.0 0.00 0.00 0.00 73 1009.9
20260506112020 59 346 9.0 18.0 0.00 0.00 0.00 75 1009.6
20260506111720 58 8 7.0 12.0 0.00 0.00 0.00 75 1009.9
20260506111220 58 355 5.0 15.0 0.00 0.00 0.00 76 1009.8
20260506111021 57 351 7.0 12.0 0.00 0.00 0.00 76 1009.5
20260506110220 56 10 9.0 16.0 0.00 0.00 0.00 76 1009.9
20260506105720 57 349 7.0 13.0 0.00 0.00 0.00 77 1010.0
20260506105220 56 359 7.0 14.0 0.00 0.00 0.00 77 1010.0
20260506105021 56 350 10.0 16.0 0.00 0.00 0.00 77 1009.7
20260506104020 56 16 6.0 12.0 0.00 0.00 0.00 76 1009.7
20260506103220 57 348 7.0 16.0 0.00 0.00 0.00 76 1009.9
20260506103020 57 357 6.0 14.0 0.00 0.00 0.00 77 1009.6
20260506101720 56 332 9.0 14.0 0.00 0.00 0.00 77 1009.9
20260506101020 56 355 7.0 11.0 0.00 0.00 0.00 78 1009.6
20260506100719 56 338 5.0 12.0 0.00 0.00 0.00 77 1009.8
20260506100219 56 349 6.0 14.0 0.00 0.00 0.00 78 1009.8
20260506100020 55 351 7.0 14.0 0.00 0.00 0.00 77 1009.5
20260506095720 56 356 9.0 16.0 0.00 0.00 0.00 78 1009.8
20260506095020 56 5 8.0 15.0 0.00 0.00 0.00 78 1009.5
20260506094220 55 359 8.0 13.0 0.00 0.00 0.00 78 1009.7
20260506094020 55 348 7.0 14.0 0.00 0.00 0.00 78 1009.5
20260506093720 55 351 7.0 13.0 0.00 0.00 0.00 78 1009.8
20260506093220 56 354 6.0 12.0 0.00 0.00 0.00 78 1009.8
20260506093020 56 14 6.0 9.0 0.00 0.00 0.00 78 1009.5
20260506092720 55 35 7.0 15.0 0.00 0.00 0.00 79 1009.8
20260506092220 55 353 6.0 12.0 0.00 0.00 0.00 79 1009.8
20260506092020 55 15 6.0 9.0 0.00 0.00 0.00 78 1009.5
20260506091720 55 35 5.0 13.0 0.00 0.00 0.00 79 1009.8
20260506091220 54 351 6.0 13.0 0.00 0.00 0.00 80 1009.7
20260506091020 54 1 6.0 13.0 0.00 0.00 0.00 80 1009.5
20260506090720 54 13 4.0 9.0 0.00 0.00 0.00 79 1009.8
20260506090219 54 6 7.0 12.0 0.00 0.00 0.00 80 1009.7
20260506090020 53 353 8.0 11.0 0.00 0.00 0.00 80 1009.4
20260506085720 53 8 7.0 12.0 0.00 0.00 0.00 80 1009.7
20260506085219 53 1 7.0 12.0 0.00 0.00 0.00 80 1009.6
20260506084720 53 13 5.0 9.0 0.00 0.00 0.00 80 1009.6
20260506084220 53 3 3.0 12.0 0.00 0.00 0.00 81 1009.6
20260506084019 53 5 4.0 7.0 0.00 0.00 0.00 81 1009.3
20260506083720 53 344 6.0 13.0 0.00 0.00 0.00 81 1009.6